EW3244 Weather Reports


Display with metric or nautical units.
time (UTC)temp
F
wind
direction
speed
MPH
gust
MPH
rain 1hr
in
rain 24hr
in
rain mn
in
humidity
%
barometer
mb
20260902110041 67 45 7.0 16.0 0.00 0.01 0.01 67 1007.9
20260902104531 67 74 8.0 17.0 0.00 0.01 0.01 67 1008.0
20260902103029 66 50 7.0 13.0 0.00 0.01 0.01 71 1008.1
20260902101533 66 16 5.0 11.0 0.00 0.01 0.01 71 1008.2
20260902100025 65 52 7.0 15.0 0.00 0.01 0.01 72 1008.3
20260902094524 65 50 8.0 15.0 0.00 0.01 0.01 74 1008.4
20260902093029 64 59 9.0 16.0 0.00 0.01 0.01 75 1008.5
20260902091517 62 33 7.0 13.0 0.00 0.01 0.01 79 1008.5
20260902090016 61 56 7.0 15.0 0.00 0.01 0.01 80 1008.6
20260902084520 62 48 8.0 17.0 0.00 0.01 0.01 79 1008.6
20260902083015 61 52 8.0 18.0 0.00 0.01 0.01 79 1008.6
20260902081511 62 53 7.0 14.0 0.00 0.01 0.01 80 1008.5
20260902080009 61 54 6.0 12.0 0.00 0.01 0.01 80 1008.5
20260902074506 60 22 8.0 15.0 0.00 0.01 0.01 80 1008.6
20260902073005 60 15 10.0 16.0 0.00 0.01 0.01 80 1008.6
20260902071502 59 54 10.0 15.0 0.00 0.01 0.01 81 1008.5
20260902070100 58 39 9.0 13.0 0.00 0.01 0.01 81 1008.5
20260902064558 58 52 6.0 14.0 0.00 0.01 0.01 81 1008.3
20260902063056 58 25 7.0 14.0 0.00 0.01 0.01 81 1008.4
20260902060059 56 47 5.0 11.0 0.01 0.01 0.01 79 1008.3
20260902054610 55 68 4.0 10.0 0.01 0.01 0.01 77 1008.3
20260902053102 55 26 4.0 8.0 0.01 0.01 0.01 76 1008.4
20260902051550 54 5 2.0 8.0 0.00 0.00 0.00 76 1008.5
20260902050055 54 40 3.0 8.0 0.00 0.00 0.00 74 1008.5
20260902044552 53 56 4.0 8.0 0.00 0.00 0.00 73 1008.5
20260902043047 52 44 4.0 8.0 0.00 0.00 0.00 69 1008.4
20260902041546 52 40 5.0 8.0 0.00 0.00 0.00 67 1008.4
20260902040048 52 37 4.0 9.0 0.00 0.00 0.00 66 1008.4
20260902034541 52 49 1.0 6.0 0.00 0.00 0.00 65 1008.5
20260902033039 52 55 4.0 9.0 0.00 0.00 0.00 55 1008.5
20260902031543 52 54 2.0 6.0 0.00 0.00 0.00 53 1008.5
20260902030036 51 44 0.0 2.0 0.00 0.00 0.00 57 1008.4
20260902024539 52 27 0.0 5.0 0.00 0.00 0.00 56 1008.5
20260902023036 52 39 1.0 3.0 0.00 0.00 0.00 56 1008.5
20260902021531 52 52 0.0 1.0 0.00 0.00 0.00 58 1008.5
20260902020030 52 52 0.0 3.0 0.00 0.00 0.00 60 1008.5
20260902014528 52 31 0.0 2.0 0.00 0.00 0.00 66 1008.6
20260902013026 53 43 0.0 3.0 0.00 0.00 0.00 63 1008.6
20260902011526 53 45 0.0 1.0 0.00 0.00 0.00 64 1008.6
20260902010025 53 45 0.0 1.0 0.00 0.00 0.00 66 1008.6
20260902004521 53 45 0.0 2.0 0.00 0.00 0.00 68 1008.6
20260902003021 54 38 0.0 3.0 0.00 0.00 0.00 68 1008.5
20260902001517 53 52 1.0 3.0 0.00 0.00 0.00 74 1008.5
20260902000015 54 34 0.0 1.0 0.00 0.00 0.00 75 1008.4
20260901234514 54 34 0.0 2.0 0.00 0.00 0.00 78 1008.4
20260901233010 55 43 0.0 3.0 0.00 0.00 0.00 80 1008.4
20260901231508 56 45 1.0 6.0 0.00 0.00 0.00 80 1008.5
20260901230008 56 52 2.0 4.0 0.00 0.00 0.00 80 1008.5
20260901224505 56 56 1.0 5.0 0.00 0.00 0.00 80 1008.6
20260901223003 57 92 1.0 6.0 0.00 0.00 0.00 79 1008.5
20260901221502 57 38 1.0 3.0 0.00 0.00 0.00 79 1008.5
20260901220116 57 51 0.0 1.0 0.00 0.00 0.00 81 1008.4
20260901214602 58 51 1.0 3.0 0.00 0.00 0.00 81 1008.5
20260901213056 58 59 1.0 4.0 0.00 0.00 0.00 81 1008.4
20260901211557 59 50 3.0 6.0 0.00 0.00 0.00 81 1008.3
20260901210056 59 56 2.0 5.0 0.00 0.00 0.00 81 1008.3
20260901204555 59 43 2.0 5.0 0.00 0.00 0.00 81 1008.4
20260901203057 60 45 3.0 6.0 0.00 0.00 0.00 81 1008.2
20260901201553 61 50 3.0 7.0 0.00 0.00 0.00 80 1008.2
20260901200051 61 47 3.0 6.0 0.00 0.00 0.00 80 1008.1
20260901194551 61 43 2.0 8.0 0.00 0.00 0.00 81 1008.0
20260901193051 61 66 0.0 1.0 0.00 0.00 0.00 80 1007.9
20260901191558 61 66 0.0 2.0 0.00 0.00 0.00 80 1007.9
20260901190047 61 66 0.0 1.0 0.00 0.00 0.00 80 1007.9
20260901184548 61 66 0.0 1.0 0.00 0.00 0.00 79 1007.8
20260901183049 61 66 0.0 1.0 0.00 0.00 0.00 79 1007.7
20260901181544 62 66 0.0 2.0 0.00 0.00 0.00 77 1007.6
20260901180043 63 68 0.0 1.0 0.00 0.00 0.00 76 1007.5
20260901174547 64 67 1.0 3.0 0.00 0.00 0.00 74 1007.4
20260901173055 65 62 2.0 5.0 0.00 0.00 0.00 71 1007.3
20260901171542 66 71 1.0 4.0 0.00 0.00 0.00 68 1007.2
20260901170043 67 71 2.0 9.0 0.00 0.00 0.00 66 1007.1
20260901164542 68 72 3.0 8.0 0.00 0.00 0.00 66 1007.0
20260901163037 69 43 3.0 6.0 0.00 0.00 0.00 64 1006.9
20260901161550 69 88 2.0 6.0 0.00 0.00 0.00 63 1006.9
20260901160034 69 54 1.0 7.0 0.00 0.00 0.00 63 1006.8
20260901154542 69 85 5.0 9.0 0.00 0.00 0.00 62 1006.7
20260901153035 69 64 4.0 9.0 0.00 0.00 0.00 60 1006.6
20260901151534 70 68 5.0 8.0 0.00 0.00 0.00 61 1006.7
20260901150037 70 63 4.0 9.0 0.00 0.00 0.00 61 1006.7
20260901144535 70 65 3.0 7.0 0.00 0.00 0.00 63 1006.7
20260901143022 69 67 2.0 5.0 0.00 0.00 0.00 67 1006.7
20260901141519 68 23 2.0 5.0 0.00 0.00 0.00 71 1006.8
20260901140017 67 38 3.0 6.0 0.00 0.00 0.00 73 1006.8
20260901134519 67 47 1.0 4.0 0.00 0.00 0.00 76 1006.9
20260901133015 67 46 3.0 5.0 0.00 0.00 0.00 76 1006.9
20260901131517 67 51 3.0 6.0 0.00 0.00 0.00 77 1007.0
20260901130021 67 31 2.0 7.0 0.00 0.00 0.00 75 1006.9
20260901124516 67 69 2.0 8.0 0.00 0.00 0.00 78 1006.9
20260901123008 66 87 3.0 7.0 0.00 0.00 0.00 80 1006.8
20260901121507 65 69 2.0 6.0 0.00 0.00 0.00 80 1006.9
20260901120007 64 76 2.0 4.0 0.00 0.00 0.00 77 1007.0
20260901114509 61 55 2.0 5.0 0.00 0.00 0.00 68 1007.1
20260901113005 60 60 1.0 3.0 0.00 0.00 0.00 74 1007.0